[[{"header":{"parameterUnit":"m.s-1","parameterCategory":1,"la1":30.2991,"la2":30.254,"lo1":-89.0895,"lo2":-89.0444,"dy":0.0017,"dx":0.0017,"nx":28,"ny":28,"refTime":"2024-07-10T09:00:00:Z","depth":0,"parameterNumber":2,"parameterNumberName":"U-component_of_WINDS"},"data":[0,0,0,0,0,0,0,0,0,0,0,0,0,0,0,0,0,0,0,0,0,0,0,0,0,0,0,0,0,0,0,0,0,0,0,0,0,0,0,0,0,0,0,0,0,0,0,0,0,0,0,0,0,0,0,0,0,0,2.7696,2.7698,0,2.7867,2.7869,2.7871,2.783,2.7827,2.7823,2.782,2.8001,2.8009,2.8016,0,0,0,0,0,0,0,0,0,0,0,0,0,2.7339,2.7346,2.7696,2.7698,2.77,2.7867,2.7869,2.7871,2.783,2.7826,2.7822,2.7819,2.7998,2.8008,2.8017,0,0,0,0,0,0,0,0,0,0,0,0,0,2.7501,2.7348,2.7696,2.77,2.7702,2.7866,2.7869,2.7872,2.7831,2.7826,2.7821,2.7817,2.7995,2.8007,2.8018,2.8191,0,0,2.8055,2.806,0,0,0,0,0,0,0,0,2.7492,2.7514,2.7697,2.77,2.7702,2.7822,2.781,2.7979,2.7833,2.7782,2.782,2.7814,2.7946,2.7961,2.8005,2.82,2.8207,2.8056,2.8063,2.8068,2.8071,0,0,0,0,0,0,0,2.7481,2.7506,2.7764,2.77,2.7703,2.7695,2.7712,2.7842,2.789,2.7786,2.7784,2.7804,2.7946,2.7993,2.8008,2.821,2.8055,2.8066,2.8073,2.8078,2.8556,2.8562,0,0,0,0,0,0,2.7466,2.7497,2.7758,2.7769,2.7582,2.7705,2.7725,2.7789,2.7888,2.7899,2.7808,2.7802,2.7975,2.7995,2.8015,2.8224,2.8068,2.8079,2.8086,2.8551,2.8558,2.8564,0,0,0,0,0,0,2.7459,2.749,2.7751,2.7633,2.7665,2.7717,2.7789,2.7795,2.7841,2.7905,2.7914,2.7847,2.7972,2.7998,2.8147,2.823,2.8084,2.8095,2.8544,2.8553,2.8561,2.8644,0,0,0,0,0,0,2.7449,2.7488,2.7552,2.7634,2.7672,2.788,2.7794,2.7802,2.7861,2.7854,2.7944,2.7954,2.797,2.813,2.8159,2.8243,2.8104,2.8537,2.8548,2.8558,2.8634,2.8654,2.8671,0,0,0,0,0,2.7436,2.757,2.7556,2.7588,2.7753,2.7885,2.7906,2.7921,2.7868,2.7935,2.7976,2.7951,2.8216,2.8146,2.8178,2.8267,2.8532,2.8545,2.8557,2.8625,2.865,2.8671,0,0,0,0,0,0,2.7499,2.7581,2.7566,2.773,2.78,2.7877,2.7962,2.7946,2.8035,2.8025,2.8041,2.8061,2.8214,2.8255,2.8176,2.844,2.8367,2.8386,2.8407,2.8431,2.8449,2.8436,2.8114,0,0,0,0,0,2.7531,2.7629,2.7696,2.7835,2.787,2.791,2.7968,2.7973,2.8047,2.8077,2.8129,2.8204,2.8304,2.837,2.8465,2.8639,2.8659,2.8717,2.8735,2.875,2.8768,2.8864,2.8891,2.8605,2.8605,2.8605,0,0,2.76,2.7657,2.7718,2.7848,2.7904,2.8006,2.7936,2.8047,2.8124,2.8095,2.8239,2.828,2.8364,2.8527,2.8601,2.8566,2.8851,2.8766,2.8778,2.8787,2.8879,2.8906,2.893,2.8614,2.8612,2.8611,0,0,2.7778,2.783,2.7951,2.8008,2.8091,2.8117,2.8146,2.8226,2.8251,2.8395,2.8376,2.8468,2.864,2.8701,2.8755,2.8956,2.8937,2.8987,2.9085,2.9178,2.9201,2.9221,2.9293,2.9319,2.9004,2.9004,2.9004,0,2.7853,2.8005,2.8016,2.813,2.8188,2.8164,2.8288,2.8343,2.8455,2.8497,2.8455,2.867,2.8726,2.8903,2.8952,2.8996,2.9031,2.8977,2.9196,2.9216,2.9235,2.9305,2.9332,2.901,2.9009,2.9008,2.9008,0,2.8095,2.8201,2.8289,2.8395,2.8463,2.8582,2.8612,2.868,2.868,2.871,2.8858,2.8923,2.9032,2.9074,2.9075,2.9252,2.9228,2.9191,2.9118,2.9268,2.9334,2.936,2.9017,2.9015,2.9014,2.9012,0,0,2.8317,2.8427,2.846,2.8508,2.8598,2.8682,2.8799,2.8904,2.8962,2.904,2.9141,2.9286,2.9253,2.9314,2.9322,2.9404,2.956,2.9358,2.936,2.9394,2.9761,2.9788,2.9818,2.9548,2.9553,2.9557,2.9754,0,2.8504,2.8709,2.8722,2.8909,2.9007,2.8987,2.9089,2.9157,2.9189,2.9279,2.9314,2.9418,2.9366,2.9402,2.9482,2.9524,2.9634,2.951,2.9643,2.9648,2.9623,2.9853,2.9882,3.0064,2.9779,2.9784,2.9787,0,2.8749,2.8832,2.9028,2.9105,2.9147,2.9239,2.9336,2.9421,2.9499,2.9516,2.9584,2.958,2.9703,2.9625,2.9795,2.971,2.9765,2.9794,2.9802,2.9816,2.9727,2.9874,3.0123,3.015,2.9827,2.9824,2.9821,0,2.8893,2.9054,2.9192,2.9234,2.9327,2.9392,2.9434,2.9506,2.9568,2.9654,2.9694,2.9794,2.9849,2.9926,2.9951,2.9891,3.0121,3.0044,3.014,3.014,3.019,3.0187,3.0453,3.0225,3.0224,3.0224,3.0223,0,2.91,2.9221,2.9258,2.9343,2.9479,2.9493,2.9627,2.9666,2.973,2.9824,2.9812,2.9901,2.9926,3.002,3.004,3.0179,3.0204,3.0223,3.0227,3.0224,3.0222,3.0261,3.025,3.0231,3.0229,3.0228,3.0227,0,2.9284,2.9313,2.9463,2.9538,2.956,2.9656,2.9722,2.9805,2.9834,2.9953,2.9981,3.0029,3.0139,3.017,3.0302,3.0316,3.0479,3.0471,3.0452,3.0453,3.0548,3.0539,3.0849,3.0891,3.0634,3.0636,3.0638,0,2.9415,2.9507,2.9592,2.9653,2.9697,2.9796,2.9858,2.9876,2.9943,3.0037,3.0109,3.0217,3.0304,3.0481,3.0529,3.063,3.0625,3.0727,3.0641,3.0635,3.0628,3.0623,3.0632,3.0744,3.0746,3.0748,3.075,0,2.9645,2.9655,2.9744,2.984,2.9914,2.9991,3.0065,3.0116,3.0145,3.022,3.0331,3.0398,3.0533,3.0641,3.0743,3.0789,3.0776,3.0777,3.0805,3.0804,3.0789,3.0799,3.0498,3.077,3.0768,3.0766,3.0765,3.0765,2.9807,2.9888,2.996,3.0061,3.0118,3.0187,3.0268,3.0307,3.0399,3.0509,3.0514,3.0635,3.0711,3.0847,3.0898,3.0994,3.0964,3.1004,3.1015,3.1025,3.1033,3.0773,3.1013,3.1012,3.1012,3.1011,3.1011,0,3.0037,3.0082,3.0174,3.0276,3.0356,3.0334,3.0414,3.0483,3.0589,3.0659,3.0745,3.0873,3.0977,3.1033,3.1137,3.1204,3.12,3.1231,3.1227,3.1238,3.1053,3.1019,3.1232,3.1232,3.1232,3.1232,3.1231,3.1231,3.0166,3.0302,3.0321,3.0486,3.053,3.0647,3.0695,3.0759,3.0815,3.0958,3.1044,3.1078,3.1144,3.1253,3.1348,3.1362,3.1401,3.1436,3.1446,3.1273,3.125,3.1229,3.1197,3.1444,3.1444,3.1623,3.1624,3.1626]},{"header":{"parameterUnit":"m.s-1","parameterCategory":1,"la1":30.2991,"la2":30.254,"lo1":-89.0895,"lo2":-89.0444,"dy":0.0017,"dx":0.0017,"nx":28,"ny":28,"refTime":"2024-07-10T09:00:00:Z","depth":0,"parameterNumber":3,"parameterNumberName":"V-component_of_WINDS"},"data":[0,0,0,0,0,0,0,0,0,0,0,0,0,0,0,0,0,0,0,0,0,0,0,0,0,0,0,0,0,0,0,0,0,0,0,0,0,0,0,0,0,0,0,0,0,0,0,0,0,0,0,0,0,0,0,0,0,0,-1.0866,-1.0866,0,-1.0846,-1.0845,-1.0845,-1.0862,-1.0863,-1.0864,-1.0864,-1.084,-1.0838,-1.0837,0,0,0,0,0,0,0,0,0,0,0,0,0,-1.0915,-1.0914,-1.0866,-1.0866,-1.0865,-1.0846,-1.0845,-1.0845,-1.0862,-1.0863,-1.0864,-1.0865,-1.084,-1.0839,-1.0837,0,0,0,0,0,0,0,0,0,0,0,0,0,-1.0894,-1.0913,-1.0866,-1.0872,-1.0872,-1.0846,-1.0845,-1.0845,-1.0862,-1.0863,-1.0864,-1.0865,-1.0841,-1.0839,-1.0837,-1.0803,0,0,-1.0831,-1.083,0,0,0,0,0,0,0,0,-1.0895,-1.0892,-1.0871,-1.0871,-1.0872,-1.0858,-1.0854,-1.0831,-1.0862,-1.0866,-1.0864,-1.0866,-1.0845,-1.0842,-1.0836,-1.0802,-1.08,-1.083,-1.0829,-1.0828,-1.0828,0,0,0,0,0,0,0,-1.0896,-1.0893,-1.0858,-1.0871,-1.0871,-1.0874,-1.0872,-1.0849,-1.0849,-1.0865,-1.0867,-1.0864,-1.0845,-1.0838,-1.0835,-1.08,-1.083,-1.0829,-1.0827,-1.0827,-1.0733,-1.0732,0,0,0,0,0,0,-1.0898,-1.0894,-1.0858,-1.0857,-1.0886,-1.0872,-1.087,-1.0861,-1.0849,-1.0849,-1.0863,-1.0865,-1.0841,-1.0838,-1.0835,-1.0792,-1.0828,-1.0826,-1.0825,-1.0735,-1.0733,-1.0732,0,0,0,0,0,0,-1.0899,-1.0895,-1.0859,-1.0876,-1.0872,-1.087,-1.086,-1.086,-1.0853,-1.0848,-1.0847,-1.0856,-1.0841,-1.0837,-1.081,-1.0791,-1.0826,-1.0824,-1.0736,-1.0734,-1.0733,-1.0707,0,0,0,0,0,0,-1.09,-1.0895,-1.0883,-1.0876,-1.0871,-1.0836,-1.0859,-1.0859,-1.085,-1.0852,-1.0841,-1.0841,-1.0842,-1.0813,-1.0808,-1.0789,-1.0822,-1.0738,-1.0735,-1.0733,-1.0709,-1.0704,-1.07,0,0,0,0,0,-1.0902,-1.0876,-1.0882,-1.0878,-1.0856,-1.0835,-1.0832,-1.0836,-1.0849,-1.0836,-1.0832,-1.0841,-1.0795,-1.081,-1.0805,-1.0785,-1.0739,-1.0736,-1.0733,-1.0711,-1.0705,-1.07,0,0,0,0,0,0,-1.0881,-1.0876,-1.0882,-1.0854,-1.0845,-1.0838,-1.0822,-1.083,-1.0816,-1.0818,-1.0822,-1.0819,-1.079,-1.0785,-1.0802,-1.075,-1.0769,-1.0764,-1.0754,-1.0748,-1.0743,-1.0744,-1.0821,0,0,0,0,0,-1.0873,-1.0858,-1.0854,-1.0829,-1.0824,-1.0824,-1.0815,-1.0818,-1.0809,-1.0805,-1.0799,-1.0788,-1.0771,-1.076,-1.0744,-1.0709,-1.0705,-1.0693,-1.0688,-1.0684,-1.068,-1.0658,-1.0652,-1.0722,-1.0722,-1.0722,0,0,-1.0856,-1.0852,-1.0842,-1.0825,-1.0818,-1.08,-1.0821,-1.0802,-1.0788,-1.0802,-1.0775,-1.077,-1.0758,-1.0727,-1.0712,-1.0722,-1.066,-1.0681,-1.0678,-1.0675,-1.0655,-1.0648,-1.0642,-1.072,-1.0721,-1.0721,0,0,-1.0816,-1.0813,-1.079,-1.0784,-1.0774,-1.0774,-1.0768,-1.076,-1.0758,-1.0732,-1.0741,-1.0724,-1.0695,-1.0685,-1.0676,-1.0631,-1.0638,-1.0626,-1.0601,-1.058,-1.0574,-1.0569,-1.055,-1.0543,-1.0622,-1.0622,-1.0622,0,-1.0796,-1.0772,-1.0778,-1.0758,-1.0749,-1.0761,-1.0737,-1.073,-1.0715,-1.0707,-1.0719,-1.0681,-1.0674,-1.0639,-1.0628,-1.0621,-1.0613,-1.0626,-1.0575,-1.057,-1.0565,-1.0547,-1.054,-1.0621,-1.0621,-1.0621,-1.0621,0,-1.0746,-1.0729,-1.0712,-1.0697,-1.0687,-1.0665,-1.0666,-1.0654,-1.0658,-1.0656,-1.0627,-1.062,-1.0601,-1.0593,-1.0597,-1.0558,-1.0563,-1.0575,-1.0593,-1.0557,-1.0539,-1.0533,-1.0618,-1.0619,-1.0619,-1.062,0,0,-1.0691,-1.0681,-1.0674,-1.0667,-1.0656,-1.0642,-1.062,-1.0603,-1.0591,-1.058,-1.056,-1.0534,-1.0544,-1.0534,-1.0537,-1.0519,-1.048,-1.0531,-1.0531,-1.0519,-1.0432,-1.0422,-1.0414,-1.0485,-1.0484,-1.0483,-1.0432,0,-1.0649,-1.0612,-1.0616,-1.0579,-1.0561,-1.0573,-1.0553,-1.0543,-1.0541,-1.0524,-1.052,-1.0501,-1.0517,-1.0511,-1.0493,-1.0488,-1.0462,-1.0492,-1.0463,-1.0462,-1.0463,-1.0405,-1.0395,-1.0347,-1.0426,-1.0425,-1.0424,0,-1.0595,-1.0582,-1.0544,-1.0534,-1.0527,-1.0509,-1.0492,-1.0477,-1.0466,-1.0465,-1.0453,-1.0458,-1.0433,-1.0454,-1.0418,-1.0439,-1.0427,-1.0422,-1.0421,-1.0416,-1.0439,-1.0396,-1.0333,-1.0324,-1.0414,-1.0415,-1.0415,0,-1.0555,-1.0529,-1.0502,-1.0495,-1.0485,-1.0471,-1.0466,-1.0456,-1.0444,-1.0429,-1.0421,-1.0404,-1.0393,-1.0378,-1.0377,-1.0393,-1.034,-1.0361,-1.0335,-1.0335,-1.0322,-1.0322,-1.0253,-1.0319,-1.0319,-1.0319,-1.0319,0,-1.0506,-1.0481,-1.0483,-1.0467,-1.0438,-1.0443,-1.0414,-1.041,-1.0401,-1.0381,-1.0391,-1.0372,-1.0373,-1.0354,-1.0353,-1.0321,-1.0317,-1.0314,-1.0313,-1.0311,-1.0311,-1.0302,-1.0304,-1.0317,-1.0318,-1.0318,-1.0318,0,-1.0456,-1.0457,-1.0428,-1.042,-1.0417,-1.0396,-1.0389,-1.0371,-1.037,-1.0345,-1.0339,-1.0336,-1.0313,-1.0311,-1.0285,-1.0284,-1.0245,-1.025,-1.0249,-1.0249,-1.0222,-1.0223,-1.0142,-1.013,-1.0207,-1.0206,-1.0205,0,-1.0423,-1.0404,-1.0394,-1.0383,-1.0377,-1.0358,-1.0346,-1.035,-1.0337,-1.0321,-1.0305,-1.0284,-1.0266,-1.0229,-1.0222,-1.0201,-1.0204,-1.0177,-1.02,-1.0198,-1.0199,-1.0199,-1.0196,-1.0171,-1.017,-1.0169,-1.0169,0,-1.0364,-1.0365,-1.0349,-1.0332,-1.0318,-1.0305,-1.0293,-1.0282,-1.0284,-1.0268,-1.0246,-1.0232,-1.0205,-1.0182,-1.0162,-1.0154,-1.016,-1.0162,-1.0154,-1.015,-1.0149,-1.0146,-1.0233,-1.0163,-1.0164,-1.0164,-1.0164,-1.0165,-1.0319,-1.0302,-1.0292,-1.0273,-1.0264,-1.0252,-1.0235,-1.0231,-1.0213,-1.0191,-1.0194,-1.0168,-1.0155,-1.0128,-1.0118,-1.0096,-1.0105,-1.0095,-1.0092,-1.0088,-1.0084,-1.0156,-1.0093,-1.0093,-1.0093,-1.0093,-1.0093,0,-1.0258,-1.0252,-1.0235,-1.0217,-1.0201,-1.0211,-1.0197,-1.0183,-1.016,-1.0148,-1.0131,-1.0103,-1.0081,-1.0072,-1.005,-1.0033,-1.0035,-1.0027,-1.0027,-1.0024,-1.0079,-1.0086,-1.0025,-1.0026,-1.0026,-1.0026,-1.0026,-1.0026,-1.0224,-1.0195,-1.0194,-1.016,-1.0153,-1.0129,-1.012,-1.0107,-1.0097,-1.0067,-1.0048,-1.0044,-1.0032,-1.0008,-0.9987,-0.9985,-0.9975,-0.9964,-0.9963,-1.0014,-1.0021,-1.0027,-1.0034,-0.9963,-0.9963,-0.991,-0.9909,-0.9909]}]]